COSMOS 2496

导读 | 豆包AI

COSMOS 2496(宇宙2496)是独联体(CIS)继承自俄罗斯航天体系的宇宙系列卫星,于2014年5月23日08时发射入轨。 宇宙系列卫星是苏/俄规模最大的卫星家族,多数承担军事任务。该卫星延续系列定位,服务于空间侦察或技术试验,是俄罗斯维持空间军事能力、开展空间技术验证的重要航天器,延续了该系列多用途军用航天任务的传统。

基本信息
目录编号:
39761
目录名称:
COSMOS 2496
国际标识:
2014-028A
轨道中心:
EARTH
卫星名称:
COSMOS 2496
卫星全名:
--
卫星状态:
在轨 (已飞行4361 天)
发射日期:
2014-05-23 UTC
国别 :
俄罗斯(独联体) (CIS)
星等 :
--
轨道信息
数据来源 国际轨道数据 AOE轨道数据
星历时间 2026-05-01T08:17:40+0800
7小时前
查看轨道信息
2026-05-01T05:00:00+0800
10小时前
查看轨道信息
半长轴 7872.567km 7872.57km
偏心率 0.001995 0.0019839
轨道倾角 82.443° 82.443°
近地点辐角 178.221° 178.505°
升交点赤经 138.281° 138.368°
平近点角 181.895° 287.708°
近地点 1478.724km 1478.814km
远地点 1510.136km 1510.052km
周期 115.860分钟 115.860分钟
每日圈数 12.428772 12.428766
详细信息
使用方式:
暂无
2D轨道图
3D轨道图
轨道高度分析图
轨道倾角分析图
轨道综合分析图
查看轨道综合分析图